San Diego Montgomery, CA

12:01 PM PDT on June 22, 2018 (GMT -0700)
Montgomery

Weather History for KMYF - September, 2017

Change the Weather History Date:

Thursday, September 14, 2017

  Actual Average Record
Temperature  
Mean Temperature 77 °F 72 °F  
Max Temperature 83 °F 81 °F 97 °F (2011)
Min Temperature 70 °F 64 °F 61 °F (2001)
Degree Days  
Heating Degree Days 0 0  
Month to date heating degree days 0 0  
Since 1 July heating degree days 0 1  
Cooling Degree Days 12 7  
Month to date cooling degree days 126 63  
Year to date cooling degree days 1020 621  
Growing Degree Days 24 (Base 50)    
Moisture  
Dew Point 58 °F    
Average Humidity 68    
Maximum Humidity 84    
Minimum Humidity 51    
Precipitation  
Precipitation 0.01 in 0.01 in 0.01 in (2017)
Month to date precipitation 0.07 0.04  
Year to date precipitation 10.14 8.50  
Sea Level Pressure  
Sea Level Pressure 29.91 in    
Wind  
Wind Speed 6 mph (WNW)    
Max Wind Speed 16 mph    
Max Gust Speed 18 mph    
Visibility 10 miles    
Events      
T = Trace of Precipitation, MM = Missing Value Source: NWS Daily Summary

Daily Weather History Graph

Daily Weather History Graph

Search for Another Location

Airport or City:

Astronomy

Sep. 14, 2017 Rise Set
Actual Time 6:31 AM PDT 6:55 PM PDT
Civil Twilight 6:07 AM PDT 7:20 PM PDT
Nautical Twilight 5:38 AM PDT 7:49 PM PDT
Astronomical Twilight 5:08 AM PDT 8:18 PM PDT
Moon 12:46 AM PDT (9/14) 3:03 PM PDT (9/14)
Length of Visible Light 13h 13m
Length of Day
12h 23m
Waning Crescent, 33% of the Moon is Illuminated
Sep 14
Waning Crescent
Sep 19
New
Sep 27
First Quarter
Oct 5
Full
Oct 12
Last Quarter

Hourly Weather History & Observations

Time (PDT) Temp. Dew Point Humidity Pressure Visibility Wind Dir Wind Speed Gust Speed Precip Events Conditions
12:08 AM 70.0 °F 60.1 °F 71% 29.93 in 10.0 mi Calm Calm - N/A   Mostly Cloudy
12:38 AM 69.1 °F 60.1 °F 73% 29.92 in 10.0 mi Calm Calm - N/A   Scattered Clouds
12:53 AM 69.1 °F 60.1 °F 73% 29.91 in 10.0 mi Calm Calm - N/A   Scattered Clouds
1:53 AM 68.0 °F 59.0 °F 73% 29.91 in 10.0 mi ENE 3.5 mph - N/A   Mostly Cloudy
2:53 AM 68.0 °F 59.0 °F 73% 29.90 in 10.0 mi NE 5.8 mph - N/A   Overcast
3:53 AM 68.0 °F 57.9 °F 70% 29.90 in 10.0 mi ESE 3.5 mph - N/A   Mostly Cloudy
4:53 AM 69.1 °F 57.9 °F 68% 29.90 in 10.0 mi Calm Calm - N/A   Overcast
5:53 AM 69.1 °F 59.0 °F 70% 29.91 in 10.0 mi Calm Calm - 0.00 in   Overcast
6:53 AM 69.1 °F 59.0 °F 70% 29.92 in 10.0 mi SE 3.5 mph - 0.00 in   Overcast
7:53 AM 70.0 °F 59.0 °F 68% 29.93 in 10.0 mi Calm Calm - N/A   Mostly Cloudy
8:53 AM 72.0 °F 57.9 °F 61% 29.94 in 10.0 mi SW 4.6 mph - N/A   Overcast
9:53 AM 73.0 °F 57.9 °F 59% 29.94 in 10.0 mi WSW 6.9 mph - N/A   Overcast
10:53 AM 73.9 °F 57.0 °F 55% 29.94 in 10.0 mi West 10.4 mph - N/A   Overcast
11:53 AM 75.9 °F 57.0 °F 52% 29.93 in 10.0 mi West 8.1 mph - N/A   Overcast
12:53 PM 78.1 °F 55.0 °F 45% 29.91 in 10.0 mi West 11.5 mph - N/A   Mostly Cloudy
1:53 PM 79.0 °F 54.0 °F 42% 29.90 in 10.0 mi NW 9.2 mph - N/A   Scattered Clouds
2:53 PM 78.1 °F 55.9 °F 46% 29.89 in 10.0 mi West 11.5 mph 19.6 mph N/A   Partly Cloudy
3:53 PM 78.1 °F 55.0 °F 45% 29.88 in 10.0 mi WNW 12.7 mph - N/A   Clear
4:53 PM 75.9 °F 55.9 °F 50% 29.88 in 10.0 mi WNW 11.5 mph - N/A   Clear
5:53 PM 75.0 °F 55.9 °F 51% 29.88 in 10.0 mi West 12.7 mph - N/A   Clear
6:53 PM 71.1 °F 60.1 °F 68% 29.89 in 10.0 mi WNW 12.7 mph - N/A   Partly Cloudy
7:53 PM 71.1 °F 61.0 °F 70% 29.91 in 10.0 mi WNW 9.2 mph - N/A   Scattered Clouds
8:53 PM 71.1 °F 61.0 °F 70% 29.92 in 10.0 mi NW 9.2 mph - N/A   Mostly Cloudy
9:26 PM 70.0 °F 61.0 °F 73% 29.93 in 10.0 mi North 6.9 mph - N/A   Scattered Clouds
9:53 PM 71.1 °F 60.1 °F 68% 29.92 in 10.0 mi NNW 5.8 mph - N/A   Mostly Cloudy
10:53 PM 71.1 °F 60.1 °F 68% 29.92 in 10.0 mi North 5.8 mph - N/A   Overcast
11:10 PM 70.0 °F 60.1 °F 71% 29.93 in 10.0 mi NNW 5.8 mph - N/A   Overcast
11:53 PM 70.0 °F 60.1 °F 71% 29.91 in 10.0 mi Calm Calm - N/A   Overcast